Tracking 29892 objects as of 21-Nov-2024
HD Live streaming from Space Station
objects crossing your sky now

NOAA 16 DEB

Track NOAA 16 DEB now!
10-day predictions


NORAD ID: 41208
Int'l Code: 2000-055DM
Perigee: 829.1 km
Apogee: 879.1 km
Inclination: 98.7 °
Period: 101.9 minutes
Semi major axis: 7225 km
RCS: Unknown
Launch date: September 21, 2000
Source: United States (US)
Launch site: AIR FORCE WESTERN TEST RANGE (AFWTR)

Note: This is SATELLITE DEBRIS
Your satellite tracking list
Your tracking list is empty




NASA's NSSDC Master Catalog

Two Line Element Set (TLE):
1 41208U 00055DM  24324.48772379  .00004800  00000-0  25499-2 0  9990
2 41208  98.6857 340.3504 0034621  96.1789 264.3330 14.13642236458195
Source of the keplerian elements: AFSPC